Time,TemperatureF,DewpointF,PressureIn,WindDirection,WindDirectionDegrees,WindSpeedMPH,WindSpeedGustMPH,Humidity,HourlyPrecipIn,Conditions,Clouds,dailyrainin,SolarRadiationWatts/m^2,SoftwareType,DateUTC
2013-01-18 00:04:00,8.1,-0.3,30.29,East,101,2.0,0.0,68,0.00,,,0.00,0,WeatherHawk,2013-01-18 07:04:00,
2013-01-18 00:09:00,7.3,-1.0,30.29,ENE,61,2.0,0.0,68,0.00,,,0.00,0,WeatherHawk,2013-01-18 07:09:00,
2013-01-18 00:14:00,8.2,-0.1,30.29,SW,231,1.0,0.0,68,0.00,,,0.00,0,WeatherHawk,2013-01-18 07:14:00,
2013-01-18 00:19:00,7.9,-0.8,30.29,East,90,2.0,0.0,67,0.00,,,0.00,1,WeatherHawk,2013-01-18 07:19:00,
2013-01-18 00:24:00,8.2,-0.1,30.29,NE,34,1.0,0.0,68,0.00,,,0.00,0,WeatherHawk,2013-01-18 07:24:00,
2013-01-18 00:29:00,9.1,0.8,30.29,ESE,103,1.0,0.0,68,0.00,,,0.00,0,WeatherHawk,2013-01-18 07:29:00,
2013-01-18 00:34:00,7.9,-1.1,30.29,SE,139,2.0,0.0,66,0.00,,,0.00,0,WeatherHawk,2013-01-18 07:34:00,
2013-01-18 00:39:00,6.4,-1.2,30.29,East,94,2.0,0.0,70,0.00,,,0.00,0,WeatherHawk,2013-01-18 07:39:00,
2013-01-18 00:44:00,7.3,0.5,30.29,East,89,2.0,0.0,73,0.00,,,0.00,0,WeatherHawk,2013-01-18 07:44:00,
2013-01-18 00:49:00,8.4,-0.2,30.29,SW,231,0.0,0.0,67,0.00,,,0.00,0,WeatherHawk,2013-01-18 07:49:00,
2013-01-18 00:54:00,7.0,-1.3,30.29,ESE,112,1.0,0.0,68,0.00,,,0.00,0,WeatherHawk,2013-01-18 07:54:00,
2013-01-18 00:59:00,6.6,-0.8,30.29,NE,39,1.0,0.0,71,0.00,,,0.00,0,WeatherHawk,2013-01-18 07:59:00,
2013-01-18 01:04:00,7.2,-1.5,30.29,WSW,255,1.0,0.0,67,0.00,,,0.00,1,WeatherHawk,2013-01-18 08:04:00,
2013-01-18 01:09:00,7.0,-1.0,30.29,NNE,20,1.0,0.0,69,0.00,,,0.00,0,WeatherHawk,2013-01-18 08:09:00,
2013-01-18 01:14:00,7.5,-0.5,30.29,SE,139,1.0,0.0,69,0.00,,,0.00,0,WeatherHawk,2013-01-18 08:14:00,
2013-01-18 01:19:00,6.8,-1.2,30.29,East,97,2.0,0.0,69,0.00,,,0.00,0,WeatherHawk,2013-01-18 08:19:00,
2013-01-18 01:24:00,7.0,0.2,30.29,WSW,242,1.0,0.0,73,0.00,,,0.00,0,WeatherHawk,2013-01-18 08:24:00,
2013-01-18 01:29:00,7.2,-1.1,30.29,ESE,105,1.0,0.0,68,0.00,,,0.00,0,WeatherHawk,2013-01-18 08:29:00,
2013-01-18 01:34:00,7.3,-0.1,30.29,ENE,61,1.0,0.0,71,0.00,,,0.00,0,WeatherHawk,2013-01-18 08:34:00,
2013-01-18 01:39:00,8.1,0.0,30.29,NE,34,1.0,0.0,69,0.00,,,0.00,0,WeatherHawk,2013-01-18 08:39:00,
2013-01-18 01:44:00,7.5,-1.4,30.29,SE,145,1.0,0.0,66,0.00,,,0.00,1,WeatherHawk,2013-01-18 08:44:00,
2013-01-18 01:49:00,5.9,-1.7,30.29,East,93,2.0,0.0,70,0.00,,,0.00,0,WeatherHawk,2013-01-18 08:49:00,
2013-01-18 01:54:00,6.6,-1.4,30.29,North,7,2.0,0.0,69,0.00,,,0.00,0,WeatherHawk,2013-01-18 08:54:00,
2013-01-18 01:59:00,6.6,-1.1,30.29,SE,145,1.0,0.0,70,0.00,,,0.00,0,WeatherHawk,2013-01-18 08:59:00,
2013-01-18 02:04:00,5.4,-1.7,30.29,ENE,74,2.0,0.0,72,0.00,,,0.00,0,WeatherHawk,2013-01-18 09:04:00,
2013-01-18 02:09:00,6.8,-0.6,30.29,SW,234,1.0,0.0,71,0.00,,,0.00,0,WeatherHawk,2013-01-18 09:09:00,
2013-01-18 02:14:00,5.7,-2.2,30.29,East,80,1.0,0.0,69,0.00,,,0.00,0,WeatherHawk,2013-01-18 09:14:00,
2013-01-18 02:19:00,5.2,-1.8,30.29,East,84,1.0,0.0,72,0.00,,,0.00,0,WeatherHawk,2013-01-18 09:19:00,
2013-01-18 02:24:00,5.7,-1.0,30.29,SE,137,2.0,0.0,73,0.00,,,0.00,0,WeatherHawk,2013-01-18 09:24:00,
2013-01-18 02:29:00,5.2,-1.8,30.29,ESE,103,2.0,0.0,72,0.00,,,0.00,0,WeatherHawk,2013-01-18 09:29:00,
2013-01-18 02:34:00,7.0,0.2,30.29,NNE,30,1.0,0.0,73,0.00,,,0.00,0,WeatherHawk,2013-01-18 09:34:00,
2013-01-18 02:39:00,7.9,0.5,30.29,ENE,65,3.0,0.0,71,0.00,,,0.00,0,WeatherHawk,2013-01-18 09:39:00,
2013-01-18 02:44:00,8.2,0.2,30.29,SSW,208,1.0,0.0,69,0.00,,,0.00,0,WeatherHawk,2013-01-18 09:44:00,
2013-01-18 02:49:00,6.8,-1.2,30.29,East,80,2.0,0.0,69,0.00,,,0.00,0,WeatherHawk,2013-01-18 09:49:00,
2013-01-18 02:54:00,7.5,-0.2,30.29,ENE,67,1.0,0.0,70,0.00,,,0.00,0,WeatherHawk,2013-01-18 09:54:00,
2013-01-18 02:59:00,6.4,-2.5,30.29,ESE,122,1.0,0.0,66,0.00,,,0.00,0,WeatherHawk,2013-01-18 09:59:00,
2013-01-18 03:04:00,6.3,-1.4,30.28,ESE,105,1.0,0.0,70,0.00,,,0.00,0,WeatherHawk,2013-01-18 10:04:00,
2013-01-18 03:09:00,6.6,-1.1,30.29,NE,45,2.0,0.0,70,0.00,,,0.00,0,WeatherHawk,2013-01-18 10:09:00,
2013-01-18 03:14:00,5.7,-2.8,30.28,ESE,123,2.0,0.0,67,0.00,,,0.00,0,WeatherHawk,2013-01-18 10:14:00,
2013-01-18 03:19:00,4.5,-2.8,30.28,ESE,122,2.0,0.0,71,0.00,,,0.00,0,WeatherHawk,2013-01-18 10:19:00,
2013-01-18 03:24:00,5.2,-1.8,30.28,SE,135,1.0,0.0,72,0.00,,,0.00,0,WeatherHawk,2013-01-18 10:24:00,
2013-01-18 03:29:00,5.0,-2.6,30.28,ENE,71,1.0,0.0,70,0.00,,,0.00,0,WeatherHawk,2013-01-18 10:29:00,
2013-01-18 03:34:00,4.5,-2.3,30.27,ESE,106,1.0,0.0,73,0.00,,,0.00,0,WeatherHawk,2013-01-18 10:34:00,
2013-01-18 03:39:00,5.7,-0.7,30.27,WNW,296,0.0,0.0,74,0.00,,,0.00,0,WeatherHawk,2013-01-18 10:39:00,
2013-01-18 03:44:00,5.9,-2.0,30.27,North,351,1.0,0.0,69,0.00,,,0.00,0,WeatherHawk,2013-01-18 10:44:00,
2013-01-18 03:49:00,5.0,-2.6,30.27,NNE,28,2.0,0.0,70,0.00,,,0.00,0,WeatherHawk,2013-01-18 10:49:00,
2013-01-18 03:54:00,6.1,-0.7,30.27,NNW,327,1.0,0.0,73,0.00,,,0.00,0,WeatherHawk,2013-01-18 10:54:00,
2013-01-18 03:59:00,5.5,-2.1,30.27,South,189,2.0,0.0,70,0.00,,,0.00,0,WeatherHawk,2013-01-18 10:59:00,
2013-01-18 04:04:00,4.6,-2.1,30.27,ENE,78,2.0,0.0,73,0.00,,,0.00,0,WeatherHawk,2013-01-18 11:04:00,
2013-01-18 04:09:00,5.0,-1.2,30.27,WSW,247,1.0,0.0,75,0.00,,,0.00,0,WeatherHawk,2013-01-18 11:09:00,
2013-01-18 04:14:00,5.4,-1.7,30.27,SE,129,2.0,0.0,72,0.00,,,0.00,0,WeatherHawk,2013-01-18 11:14:00,
2013-01-18 04:19:00,4.5,-3.1,30.27,East,89,2.0,0.0,70,0.00,,,0.00,1,WeatherHawk,2013-01-18 11:19:00,
2013-01-18 04:24:00,4.6,-2.1,30.27,NE,55,2.0,0.0,73,0.00,,,0.00,0,WeatherHawk,2013-01-18 11:24:00,
2013-01-18 04:29:00,5.0,-1.4,30.27,ESE,105,2.0,0.0,74,0.00,,,0.00,0,WeatherHawk,2013-01-18 11:29:00,
2013-01-18 04:34:00,5.7,-1.9,30.27,SSW,212,1.0,0.0,70,0.00,,,0.00,0,WeatherHawk,2013-01-18 11:34:00,
2013-01-18 04:39:00,4.1,-3.2,30.27,East,83,1.0,0.0,71,0.00,,,0.00,0,WeatherHawk,2013-01-18 11:39:00,
2013-01-18 04:44:00,4.6,-2.4,30.27,NNW,346,2.0,0.0,72,0.00,,,0.00,0,WeatherHawk,2013-01-18 11:44:00,
2013-01-18 04:49:00,4.6,-2.7,30.27,WSW,253,1.0,0.0,71,0.00,,,0.00,0,WeatherHawk,2013-01-18 11:49:00,
2013-01-18 04:54:00,4.6,-2.7,30.27,ESE,111,2.0,0.0,71,0.00,,,0.00,0,WeatherHawk,2013-01-18 11:54:00,
2013-01-18 04:59:00,4.3,-2.4,30.27,ENE,76,2.0,0.0,73,0.00,,,0.00,0,WeatherHawk,2013-01-18 11:59:00,
2013-01-18 05:04:00,4.6,-2.4,30.27,SSW,195,1.0,0.0,72,0.00,,,0.00,1,WeatherHawk,2013-01-18 12:04:00,
2013-01-18 05:09:00,4.6,-2.4,30.27,NNE,28,2.0,0.0,72,0.00,,,0.00,0,WeatherHawk,2013-01-18 12:09:00,
2013-01-18 05:15:00,5.4,-2.3,30.27,ENE,73,0.0,0.0,70,0.00,,,0.00,0,WeatherHawk,2013-01-18 12:15:00,
2013-01-18 05:20:00,4.8,-2.2,30.27,ESE,118,2.0,0.0,72,0.00,,,0.00,1,WeatherHawk,2013-01-18 12:20:00,
2013-01-18 05:25:00,3.9,-3.6,30.27,ESE,113,2.0,0.0,70,0.00,,,0.00,0,WeatherHawk,2013-01-18 12:25:00,
2013-01-18 05:30:00,3.7,-2.4,30.27,ESE,116,2.0,-999.0,75,0.00,,,0.00,0,WeatherHawk,2013-01-18 12:30:00,
2013-01-18 05:35:00,5.5,-1.2,30.27,SE,146,1.0,0.0,73,0.00,,,0.00,0,WeatherHawk,2013-01-18 12:35:00,
2013-01-18 05:40:00,5.4,-2.0,30.27,SE,135,1.0,-999.0,71,0.00,,,0.00,0,WeatherHawk,2013-01-18 12:40:00,
2013-01-18 05:45:00,3.7,-3.2,30.27,East,89,2.0,-999.0,72,0.00,,,0.00,0,WeatherHawk,2013-01-18 12:45:00,
2013-01-18 05:50:00,5.7,-1.0,30.27,SSE,151,0.0,0.0,73,0.00,,,0.00,0,WeatherHawk,2013-01-18 12:50:00,
2013-01-18 05:55:00,6.3,-1.1,30.27,North,359,2.0,0.0,71,0.00,,,0.00,1,WeatherHawk,2013-01-18 12:55:00,
2013-01-18 06:00:00,5.9,-2.0,30.27,NW,325,1.0,-999.0,69,0.00,,,0.00,0,WeatherHawk,2013-01-18 13:00:00,
2013-01-18 06:05:00,5.7,-1.9,30.27,North,351,1.0,-999.0,70,0.00,,,0.00,0,WeatherHawk,2013-01-18 13:05:00,
2013-01-18 06:10:00,6.3,-2.6,30.27,SSW,203,1.0,-999.0,66,0.00,,,0.00,1,WeatherHawk,2013-01-18 13:10:00,
2013-01-18 06:15:00,4.1,-3.8,30.27,ESE,116,2.0,-999.0,69,0.00,,,0.00,0,WeatherHawk,2013-01-18 13:15:00,
2013-01-18 06:20:00,4.1,-2.9,30.27,East,81,3.0,-999.0,72,0.00,,,0.00,0,WeatherHawk,2013-01-18 13:20:00,
2013-01-18 06:25:00,5.7,-1.0,30.27,ENE,57,0.0,0.0,73,0.00,,,0.00,1,WeatherHawk,2013-01-18 13:25:00,
2013-01-18 06:30:00,5.9,-1.7,30.27,ESE,113,1.0,-999.0,70,0.00,,,0.00,0,WeatherHawk,2013-01-18 13:30:00,
2013-01-18 06:35:00,5.4,-2.0,30.27,South,177,1.0,-999.0,71,0.00,,,0.00,0,WeatherHawk,2013-01-18 13:35:00,
2013-01-18 06:40:00,5.0,-2.0,30.27,SE,128,3.0,0.0,72,0.00,,,0.00,0,WeatherHawk,2013-01-18 13:40:00,
2013-01-18 06:45:00,5.0,-1.4,30.27,ENE,75,2.0,0.0,74,0.00,,,0.00,0,WeatherHawk,2013-01-18 13:45:00,
2013-01-18 06:50:00,6.1,-0.4,30.27,East,87,2.0,0.0,74,0.00,,,0.00,0,WeatherHawk,2013-01-18 13:50:00,
2013-01-18 06:55:00,5.4,-1.7,30.27,SE,134,1.0,0.0,72,0.00,,,0.00,0,WeatherHawk,2013-01-18 13:55:00,
2013-01-18 07:00:00,5.0,-0.9,30.27,NE,42,2.0,-999.0,76,0.00,,,0.00,0,WeatherHawk,2013-01-18 14:00:00,
2013-01-18 07:05:00,5.7,-0.2,30.27,SSE,150,1.0,-999.0,76,0.00,,,0.00,0,WeatherHawk,2013-01-18 14:05:00,
2013-01-18 07:10:00,5.5,-0.9,30.27,ESE,107,3.0,-999.0,74,0.00,,,0.00,1,WeatherHawk,2013-01-18 14:10:00,
2013-01-18 07:15:00,4.8,-1.3,30.27,SE,130,4.0,0.0,75,0.00,,,0.00,2,WeatherHawk,2013-01-18 14:15:00,
2013-01-18 07:20:00,6.1,-0.1,30.27,East,79,2.0,0.0,75,0.00,,,0.00,1,WeatherHawk,2013-01-18 14:20:00,
2013-01-18 07:25:00,6.4,0.2,30.27,NW,326,3.0,-999.0,75,0.00,,,0.00,2,WeatherHawk,2013-01-18 14:25:00,
2013-01-18 07:30:00,6.3,-0.5,30.27,ESE,106,2.0,0.0,73,0.00,,,0.00,4,WeatherHawk,2013-01-18 14:30:00,
2013-01-18 07:35:00,7.0,0.5,30.27,SE,131,2.0,0.0,74,0.00,,,0.00,5,WeatherHawk,2013-01-18 14:35:00,
2013-01-18 07:40:00,6.4,0.0,30.27,ESE,113,2.0,-999.0,74,0.00,,,0.00,6,WeatherHawk,2013-01-18 14:40:00,
2013-01-18 07:45:00,5.2,-1.8,30.27,East,82,2.0,0.0,72,0.00,,,0.00,6,WeatherHawk,2013-01-18 14:45:00,
2013-01-18 07:50:00,5.4,-1.1,30.27,East,86,2.0,0.0,74,0.00,,,0.00,7,WeatherHawk,2013-01-18 14:50:00,
2013-01-18 07:55:00,5.9,-0.3,30.28,NE,46,1.0,0.0,75,0.00,,,0.00,7,WeatherHawk,2013-01-18 14:55:00,
2013-01-18 08:00:00,6.1,-0.7,30.28,NNW,341,2.0,-999.0,73,0.00,,,0.00,8,WeatherHawk,2013-01-18 15:00:00,
2013-01-18 08:05:00,5.7,-1.0,30.28,ENE,67,2.0,0.0,73,0.00,,,0.00,10,WeatherHawk,2013-01-18 15:05:00,
2013-01-18 08:10:00,6.1,-0.7,30.28,SSW,201,2.0,0.0,73,0.00,,,0.00,10,WeatherHawk,2013-01-18 15:10:00,
2013-01-18 08:15:00,5.4,-1.7,30.28,ESE,117,2.0,0.0,72,0.00,,,0.00,10,WeatherHawk,2013-01-18 15:15:00,
2013-01-18 08:20:00,6.4,-0.3,30.28,East,93,3.0,0.0,73,0.00,,,0.00,10,WeatherHawk,2013-01-18 15:20:00,
2013-01-18 08:25:00,7.0,-0.1,30.29,NE,35,3.0,0.0,72,0.00,,,0.00,9,WeatherHawk,2013-01-18 15:25:00,
2013-01-18 08:30:00,7.0,-0.4,30.29,ESE,109,2.0,0.0,71,0.00,,,0.00,10,WeatherHawk,2013-01-18 15:30:00,
2013-01-18 08:35:00,6.8,-0.3,30.29,ESE,107,2.0,0.0,72,0.00,,,0.00,11,WeatherHawk,2013-01-18 15:35:00,
2013-01-18 08:40:00,7.9,0.5,30.29,East,101,1.0,-999.0,71,0.00,,,0.00,11,WeatherHawk,2013-01-18 15:40:00,
2013-01-18 08:45:00,8.6,0.5,30.29,East,96,2.0,0.0,69,0.00,,,0.00,13,WeatherHawk,2013-01-18 15:45:00,
2013-01-18 08:50:00,8.6,0.2,30.29,SSE,164,1.0,-999.0,68,0.00,,,0.00,137,WeatherHawk,2013-01-18 15:50:00,
2013-01-18 08:55:00,11.1,1.4,30.29,East,89,2.0,0.0,64,0.00,,,0.00,162,WeatherHawk,2013-01-18 15:55:00,
2013-01-18 09:00:00,12.4,1.9,30.29,South,179,1.0,-999.0,62,0.00,,,0.00,174,WeatherHawk,2013-01-18 16:00:00,
2013-01-18 09:05:00,14.0,1.2,30.29,North,3,2.0,0.0,56,0.00,,,0.00,189,WeatherHawk,2013-01-18 16:05:00,
2013-01-18 09:10:00,14.4,0.8,30.29,WNW,301,2.0,-999.0,54,0.00,,,0.00,200,WeatherHawk,2013-01-18 16:10:00,
2013-01-18 09:15:00,15.3,2.4,30.29,SE,146,1.0,0.0,56,0.00,,,0.00,215,WeatherHawk,2013-01-18 16:15:00,
2013-01-18 09:20:00,16.2,1.7,30.29,ESE,118,1.0,0.0,52,0.00,,,0.00,224,WeatherHawk,2013-01-18 16:20:00,
2013-01-18 09:25:00,16.9,1.5,30.29,SW,220,1.0,-999.0,50,0.00,,,0.00,235,WeatherHawk,2013-01-18 16:25:00,
2013-01-18 09:30:00,17.6,1.3,30.29,East,90,1.0,0.0,48,0.00,,,0.00,244,WeatherHawk,2013-01-18 16:30:00,
2013-01-18 09:35:00,19.4,2.5,30.29,NNW,330,1.0,-999.0,47,0.00,,,0.00,255,WeatherHawk,2013-01-18 16:35:00,
2013-01-18 09:40:00,20.1,2.2,30.29,NW,326,1.0,0.0,45,0.00,,,0.00,265,WeatherHawk,2013-01-18 16:40:00,
2013-01-18 09:45:00,21.6,3.5,30.29,SW,228,1.0,-999.0,45,0.00,,,0.00,273,WeatherHawk,2013-01-18 16:45:00,
2013-01-18 09:50:00,19.6,1.2,30.29,NNW,328,2.0,-999.0,44,0.00,,,0.00,282,WeatherHawk,2013-01-18 16:50:00,
2013-01-18 09:55:00,19.9,2.5,30.29,NNW,335,3.0,0.0,46,0.00,,,0.00,290,WeatherHawk,2013-01-18 16:55:00,
2013-01-18 10:00:00,20.8,3.4,30.29,WSW,241,3.0,-999.0,46,0.00,,,0.00,300,WeatherHawk,2013-01-18 17:00:00,
2013-01-18 10:05:00,21.6,3.5,30.29,West,271,2.0,0.0,45,0.00,,,0.00,307,WeatherHawk,2013-01-18 17:05:00,
2013-01-18 10:10:00,21.9,3.4,30.29,NW,306,2.0,-999.0,44,0.00,,,0.00,310,WeatherHawk,2013-01-18 17:10:00,
2013-01-18 10:15:00,22.5,3.4,30.29,WNW,302,2.0,-999.0,43,0.00,,,0.00,320,WeatherHawk,2013-01-18 17:15:00,
2013-01-18 10:20:00,25.0,3.6,30.28,South,175,1.0,0.0,39,0.00,,,0.00,330,WeatherHawk,2013-01-18 17:20:00,
2013-01-18 10:25:00,25.9,4.4,30.28,ENE,64,1.0,-999.0,39,0.00,,,0.00,335,WeatherHawk,2013-01-18 17:25:00,
2013-01-18 10:30:00,26.6,4.5,30.28,North,350,1.0,-999.0,38,0.00,,,0.00,343,WeatherHawk,2013-01-18 17:30:00,
2013-01-18 10:35:00,26.2,3.0,30.28,NW,313,1.0,0.0,36,0.00,,,0.00,347,WeatherHawk,2013-01-18 17:35:00,
2013-01-18 10:40:00,27.3,2.7,30.28,SSW,203,2.0,-999.0,34,0.00,,,0.00,355,WeatherHawk,2013-01-18 17:40:00,
2013-01-18 10:45:00,28.4,4.3,30.28,South,170,1.0,0.0,35,0.00,,,0.00,361,WeatherHawk,2013-01-18 17:45:00,
2013-01-18 10:50:00,29.3,4.5,30.28,West,280,5.0,-999.0,34,0.00,,,0.00,369,WeatherHawk,2013-01-18 17:50:00,
2013-01-18 10:55:00,27.9,4.4,30.27,North,355,0.0,-999.0,36,0.00,,,0.00,372,WeatherHawk,2013-01-18 17:55:00,
2013-01-18 11:00:00,28.9,6.0,30.27,North,353,0.0,-999.0,37,0.00,,,0.00,376,WeatherHawk,2013-01-18 18:00:00,
2013-01-18 11:05:00,31.1,2.6,30.27,West,261,2.0,0.0,29,0.00,,,0.00,379,WeatherHawk,2013-01-18 18:05:00,
2013-01-18 11:10:00,30.9,4.6,30.27,West,277,3.0,0.0,32,0.00,,,0.00,385,WeatherHawk,2013-01-18 18:10:00,
2013-01-18 11:15:00,30.0,4.4,30.27,NNW,335,1.0,0.0,33,0.00,,,0.00,388,WeatherHawk,2013-01-18 18:15:00,
2013-01-18 11:20:00,29.8,4.9,30.27,WNW,302,2.0,0.0,34,0.00,,,0.00,391,WeatherHawk,2013-01-18 18:20:00,
2013-01-18 11:25:00,29.1,5.5,30.27,NW,311,2.0,-999.0,36,0.00,,,0.00,394,WeatherHawk,2013-01-18 18:25:00,
2013-01-18 11:30:00,29.3,5.7,30.27,NW,308,2.0,0.0,36,0.00,,,0.00,398,WeatherHawk,2013-01-18 18:30:00,
2013-01-18 11:35:00,30.4,4.8,30.27,West,281,2.0,0.0,33,0.00,,,0.00,400,WeatherHawk,2013-01-18 18:35:00,
2013-01-18 11:40:00,31.1,1.8,30.26,West,281,2.0,-999.0,28,0.00,,,0.00,403,WeatherHawk,2013-01-18 18:40:00,
2013-01-18 11:45:00,31.3,-0.4,30.26,WSW,242,2.0,0.0,25,0.00,,,0.00,405,WeatherHawk,2013-01-18 18:45:00,
2013-01-18 11:50:00,31.1,0.3,30.26,West,269,2.0,-999.0,26,0.00,,,0.00,407,WeatherHawk,2013-01-18 18:50:00,
2013-01-18 11:55:00,30.9,-0.7,30.25,West,263,2.0,0.0,25,0.00,,,0.00,408,WeatherHawk,2013-01-18 18:55:00,
2013-01-18 12:00:00,31.5,-0.3,30.25,SW,235,2.0,-999.0,25,0.00,,,0.00,406,WeatherHawk,2013-01-18 19:00:00,
2013-01-18 12:05:00,33.1,2.0,30.25,NNW,335,2.0,0.0,26,0.00,,,0.00,408,WeatherHawk,2013-01-18 19:05:00,
2013-01-18 12:10:00,32.0,0.2,30.25,WNW,282,5.0,-999.0,25,0.00,,,0.00,407,WeatherHawk,2013-01-18 19:10:00,
2013-01-18 12:15:00,31.8,0.9,30.25,WSW,238,3.0,0.0,26,0.00,,,0.00,407,WeatherHawk,2013-01-18 19:15:00,
2013-01-18 12:20:00,32.0,1.8,30.25,SSW,203,4.0,0.0,27,0.00,,,0.00,407,WeatherHawk,2013-01-18 19:20:00,
2013-01-18 12:25:00,32.5,1.5,30.25,WNW,290,2.0,0.0,26,0.00,,,0.00,405,WeatherHawk,2013-01-18 19:25:00,
2013-01-18 12:30:00,33.1,2.8,30.25,SW,218,1.0,-999.0,27,0.00,,,0.00,404,WeatherHawk,2013-01-18 19:30:00,
2013-01-18 12:35:00,33.3,1.3,30.24,SSW,196,2.0,0.0,25,0.00,,,0.00,403,WeatherHawk,2013-01-18 19:35:00,
2013-01-18 12:40:00,34.7,5.0,30.24,WSW,237,0.0,0.0,28,0.00,,,0.00,400,WeatherHawk,2013-01-18 19:40:00,
2013-01-18 12:45:00,35.2,3.8,30.24,West,265,1.0,0.0,26,0.00,,,0.00,398,WeatherHawk,2013-01-18 19:45:00,
2013-01-18 12:50:00,33.8,1.7,30.24,SW,230,3.0,0.0,25,0.00,,,0.00,395,WeatherHawk,2013-01-18 19:50:00,
2013-01-18 12:55:00,34.0,4.3,30.24,SW,228,1.0,-999.0,28,0.00,,,0.00,394,WeatherHawk,2013-01-18 19:55:00,
2013-01-18 13:00:00,35.4,2.3,30.24,WNW,294,1.0,0.0,24,0.00,,,0.00,392,WeatherHawk,2013-01-18 20:00:00,
2013-01-18 13:05:00,34.0,1.9,30.24,NNW,328,4.0,-999.0,25,0.00,,,0.00,386,WeatherHawk,2013-01-18 20:05:00,
2013-01-18 13:10:00,33.1,2.0,30.24,NW,309,1.0,0.0,26,0.00,,,0.00,381,WeatherHawk,2013-01-18 20:10:00,
2013-01-18 13:15:00,33.8,0.9,30.24,NW,316,5.0,-999.0,24,0.00,,,0.00,378,WeatherHawk,2013-01-18 20:15:00,
2013-01-18 13:20:00,34.0,1.9,30.24,West,278,1.0,0.0,25,0.00,,,0.00,373,WeatherHawk,2013-01-18 20:20:00,
2013-01-18 13:25:00,35.4,4.0,30.24,West,270,1.0,0.0,26,0.00,,,0.00,370,WeatherHawk,2013-01-18 20:25:00,
2013-01-18 13:30:00,34.9,3.5,30.23,SW,216,1.0,0.0,26,0.00,,,0.00,362,WeatherHawk,2013-01-18 20:30:00,
2013-01-18 13:35:00,36.5,2.3,30.23,ESE,119,1.0,0.0,23,0.00,,,0.00,357,WeatherHawk,2013-01-18 20:35:00,
2013-01-18 13:40:00,37.2,6.4,30.23,WSW,241,1.0,-999.0,27,0.00,,,0.00,353,WeatherHawk,2013-01-18 20:40:00,
2013-01-18 13:45:00,37.6,3.2,30.24,NNW,330,3.0,-999.0,23,0.00,,,0.00,345,WeatherHawk,2013-01-18 20:45:00,
2013-01-18 13:50:00,34.3,1.3,30.23,West,268,3.0,-999.0,24,0.00,,,0.00,338,WeatherHawk,2013-01-18 20:50:00,
2013-01-18 13:55:00,34.5,2.4,30.23,NNW,339,1.0,0.0,25,0.00,,,0.00,333,WeatherHawk,2013-01-18 20:55:00,
2013-01-18 14:00:00,34.7,2.5,30.23,NNE,16,2.0,-999.0,25,0.00,,,0.00,325,WeatherHawk,2013-01-18 21:00:00,
2013-01-18 14:05:00,33.4,2.3,30.23,WNW,292,3.0,0.0,26,0.00,,,0.00,319,WeatherHawk,2013-01-18 21:05:00,
2013-01-18 14:10:00,33.6,1.6,30.23,NNW,333,1.0,0.0,25,0.00,,,0.00,311,WeatherHawk,2013-01-18 21:10:00,
2013-01-18 14:15:00,34.2,2.1,30.23,WNW,300,3.0,0.0,25,0.00,,,0.00,303,WeatherHawk,2013-01-18 21:15:00,
2013-01-18 14:20:00,34.0,2.7,30.23,NW,318,4.0,-999.0,26,0.00,,,0.00,294,WeatherHawk,2013-01-18 21:20:00,
2013-01-18 14:25:00,33.6,1.6,30.23,SW,215,2.0,0.0,25,0.00,,,0.00,284,WeatherHawk,2013-01-18 21:25:00,
2013-01-18 14:30:00,35.1,4.5,30.23,North,350,1.0,-999.0,27,0.00,,,0.00,276,WeatherHawk,2013-01-18 21:30:00,
2013-01-18 14:35:00,35.6,4.1,30.23,NNE,21,1.0,0.0,26,0.00,,,0.00,266,WeatherHawk,2013-01-18 21:35:00,
2013-01-18 14:40:00,35.6,4.1,30.23,SW,229,1.0,0.0,26,0.00,,,0.00,257,WeatherHawk,2013-01-18 21:40:00,
2013-01-18 14:45:00,36.5,3.2,30.23,West,263,3.0,0.0,24,0.00,,,0.00,248,WeatherHawk,2013-01-18 21:45:00,
2013-01-18 14:50:00,36.0,3.6,30.23,NW,316,1.0,0.0,25,0.00,,,0.00,241,WeatherHawk,2013-01-18 21:50:00,
2013-01-18 14:55:00,36.1,2.9,30.23,WNW,294,3.0,0.0,24,0.00,,,0.00,229,WeatherHawk,2013-01-18 21:55:00,
2013-01-18 15:00:00,34.2,2.1,30.23,NNW,334,3.0,0.0,25,0.00,,,0.00,218,WeatherHawk,2013-01-18 22:00:00,
2013-01-18 15:05:00,34.7,3.4,30.23,NNW,344,4.0,0.0,26,0.00,,,0.00,208,WeatherHawk,2013-01-18 22:05:00,
2013-01-18 15:10:00,34.2,2.9,30.23,West,259,2.0,0.0,26,0.00,,,0.00,200,WeatherHawk,2013-01-18 22:10:00,
2013-01-18 15:15:00,34.2,2.9,30.23,West,277,3.0,0.0,26,0.00,,,0.00,188,WeatherHawk,2013-01-18 22:15:00,
2013-01-18 15:20:00,34.9,3.5,30.23,North,349,4.0,0.0,26,0.00,,,0.00,179,WeatherHawk,2013-01-18 22:20:00,
2013-01-18 15:25:00,34.3,2.2,30.23,West,273,2.0,0.0,25,0.00,,,0.00,168,WeatherHawk,2013-01-18 22:25:00,
2013-01-18 15:30:00,33.6,2.4,30.23,West,275,2.0,0.0,26,0.00,,,0.00,158,WeatherHawk,2013-01-18 22:30:00,
2013-01-18 15:35:00,34.2,3.7,30.23,NW,309,1.0,0.0,27,0.00,,,0.00,148,WeatherHawk,2013-01-18 22:35:00,
2013-01-18 15:40:00,34.3,3.9,30.23,NW,309,1.0,0.0,27,0.00,,,0.00,138,WeatherHawk,2013-01-18 22:40:00,
2013-01-18 15:45:00,33.6,4.8,30.23,West,266,1.0,0.0,29,0.00,,,0.00,128,WeatherHawk,2013-01-18 22:45:00,
2013-01-18 15:50:00,33.8,3.4,30.23,West,278,2.0,0.0,27,0.00,,,0.00,119,WeatherHawk,2013-01-18 22:50:00,
2013-01-18 15:55:00,33.3,2.9,30.23,WSW,250,2.0,0.0,27,0.00,,,0.00,109,WeatherHawk,2013-01-18 22:55:00,
2013-01-18 16:00:00,32.9,3.4,30.23,NW,309,1.0,0.0,28,0.00,,,0.00,102,WeatherHawk,2013-01-18 23:00:00,
2013-01-18 16:05:00,32.4,4.4,30.23,NW,323,1.0,0.0,30,0.00,,,0.00,90,WeatherHawk,2013-01-18 23:05:00,
2013-01-18 16:10:00,33.3,3.7,30.23,SW,221,2.0,0.0,28,0.00,,,0.00,81,WeatherHawk,2013-01-18 23:10:00,
2013-01-18 16:15:00,34.0,4.3,30.23,WSW,248,1.0,0.0,28,0.00,,,0.00,25,WeatherHawk,2013-01-18 23:15:00,
2013-01-18 16:20:00,31.8,3.2,30.23,North,2,0.0,0.0,29,0.00,,,0.00,9,WeatherHawk,2013-01-18 23:20:00,
2013-01-18 16:25:00,31.5,2.9,30.23,NW,315,2.0,0.0,29,0.00,,,0.00,9,WeatherHawk,2013-01-18 23:25:00,
2013-01-18 16:30:00,30.2,2.5,30.23,NE,40,1.0,0.0,30,0.00,,,0.00,10,WeatherHawk,2013-01-18 23:30:00,
2013-01-18 16:35:00,29.5,2.6,30.23,ENE,75,1.0,0.0,31,0.00,,,0.00,8,WeatherHawk,2013-01-18 23:35:00,
2013-01-18 16:40:00,28.8,2.0,30.23,NNW,334,1.0,0.0,31,0.00,,,0.00,8,WeatherHawk,2013-01-18 23:40:00,
2013-01-18 16:45:00,28.4,1.7,30.23,ENE,68,1.0,0.0,31,0.00,,,0.00,8,WeatherHawk,2013-01-18 23:45:00,
2013-01-18 16:50:00,27.9,2.5,30.23,East,99,2.0,0.0,33,0.00,,,0.00,5,WeatherHawk,2013-01-18 23:50:00,
2013-01-18 16:55:00,27.5,2.2,30.23,ENE,72,2.0,0.0,33,0.00,,,0.00,7,WeatherHawk,2013-01-18 23:55:00,
2013-01-18 17:00:00,27.3,2.1,30.23,NNE,30,3.0,0.0,33,0.00,,,0.00,3,WeatherHawk,2013-01-19 00:00:00,
2013-01-18 17:05:00,27.3,2.7,30.23,ENE,69,2.0,0.0,34,0.00,,,0.00,5,WeatherHawk,2013-01-19 00:05:00,
2013-01-18 17:10:00,27.7,2.4,30.24,ENE,65,3.0,0.0,33,0.00,,,0.00,2,WeatherHawk,2013-01-19 00:10:00,
2013-01-18 17:15:00,27.5,2.2,30.24,East,81,3.0,0.0,33,0.00,,,0.00,3,WeatherHawk,2013-01-19 00:15:00,
2013-01-18 17:20:00,27.5,2.9,30.24,NNE,23,2.0,0.0,34,0.00,,,0.00,0,WeatherHawk,2013-01-19 00:20:00,
2013-01-18 17:25:00,27.3,2.7,30.24,NNW,338,2.0,0.0,34,0.00,,,0.00,0,WeatherHawk,2013-01-19 00:25:00,
2013-01-18 17:30:00,26.6,3.3,30.24,NW,315,1.0,0.0,36,0.00,,,0.00,0,WeatherHawk,2013-01-19 00:30:00,
2013-01-18 17:35:00,25.2,2.6,30.24,ESE,116,1.0,0.0,37,0.00,,,0.00,0,WeatherHawk,2013-01-19 00:35:00,
2013-01-18 17:40:00,24.6,2.1,30.24,WNW,294,1.0,0.0,37,0.00,,,0.00,0,WeatherHawk,2013-01-19 00:40:00,
2013-01-18 17:45:00,24.1,2.2,30.24,ESE,115,1.0,0.0,38,0.00,,,0.00,1,WeatherHawk,2013-01-19 00:45:00,
2013-01-18 17:50:00,23.7,3.0,30.24,North,355,1.0,0.0,40,0.00,,,0.00,2,WeatherHawk,2013-01-19 00:50:00,
2013-01-18 17:55:00,23.7,2.4,30.24,ENE,62,0.0,0.0,39,0.00,,,0.00,0,WeatherHawk,2013-01-19 00:55:00,
2013-01-18 18:00:00,24.1,1.6,30.24,ENE,71,2.0,0.0,37,0.00,,,0.00,0,WeatherHawk,2013-01-19 01:00:00,
2013-01-18 18:05:00,24.1,2.2,30.24,ENE,67,0.0,0.0,38,0.00,,,0.00,0,WeatherHawk,2013-01-19 01:05:00,
2013-01-18 18:10:00,23.7,2.4,30.24,East,85,1.0,0.0,39,0.00,,,0.00,1,WeatherHawk,2013-01-19 01:10:00,
2013-01-18 18:15:00,23.5,1.7,30.24,East,81,2.0,0.0,38,0.00,,,0.00,0,WeatherHawk,2013-01-19 01:15:00,
2013-01-18 18:20:00,23.4,2.6,30.24,ESE,102,2.0,0.0,40,0.00,,,0.00,1,WeatherHawk,2013-01-19 01:20:00,
2013-01-18 18:25:00,23.5,2.3,30.24,ESE,122,2.0,0.0,39,0.00,,,0.00,0,WeatherHawk,2013-01-19 01:25:00,
2013-01-18 18:30:00,23.5,2.8,30.24,ENE,69,2.0,0.0,40,0.00,,,0.00,0,WeatherHawk,2013-01-19 01:30:00,
2013-01-18 18:35:00,23.0,2.3,30.24,East,79,3.0,0.0,40,0.00,,,0.00,0,WeatherHawk,2013-01-19 01:35:00,
2013-01-18 18:40:00,23.0,2.3,30.24,East,94,2.0,0.0,40,0.00,,,0.00,0,WeatherHawk,2013-01-19 01:40:00,
2013-01-18 18:45:00,22.8,3.2,30.24,East,87,1.0,0.0,42,0.00,,,0.00,0,WeatherHawk,2013-01-19 01:45:00,
2013-01-18 18:50:00,21.0,2.6,30.24,SSE,148,1.0,0.0,44,0.00,,,0.00,0,WeatherHawk,2013-01-19 01:50:00,
2013-01-18 18:55:00,19.2,1.9,30.24,ESE,113,1.0,0.0,46,0.00,,,0.00,0,WeatherHawk,2013-01-19 01:55:00,
2013-01-18 19:00:00,19.0,2.6,30.24,SSE,159,1.0,0.0,48,0.00,,,0.00,0,WeatherHawk,2013-01-19 02:00:00,
2013-01-18 19:05:00,18.5,1.7,30.24,South,178,0.0,0.0,47,0.00,,,0.00,0,WeatherHawk,2013-01-19 02:05:00,
2013-01-18 19:10:00,18.9,2.9,30.24,NW,305,1.0,0.0,49,0.00,,,0.00,0,WeatherHawk,2013-01-19 02:10:00,
2013-01-18 19:15:00,18.3,1.5,30.24,South,187,4.0,0.0,47,0.00,,,0.00,1,WeatherHawk,2013-01-19 02:15:00,
2013-01-18 19:20:00,16.7,0.5,30.24,SE,127,2.0,0.0,48,0.00,,,0.00,0,WeatherHawk,2013-01-19 02:20:00,
2013-01-18 19:25:00,17.1,1.2,30.24,East,87,2.0,0.0,49,0.00,,,0.00,0,WeatherHawk,2013-01-19 02:25:00,
2013-01-18 19:30:00,17.2,1.8,30.23,ENE,74,1.0,0.0,50,0.00,,,0.00,0,WeatherHawk,2013-01-19 02:30:00,
2013-01-18 19:35:00,17.4,1.6,30.23,SE,135,1.0,0.0,49,0.00,,,0.00,0,WeatherHawk,2013-01-19 02:35:00,
2013-01-18 19:40:00,16.0,0.7,30.23,ENE,77,2.0,0.0,50,0.00,,,0.00,0,WeatherHawk,2013-01-19 02:40:00,
2013-01-18 19:45:00,15.3,0.8,30.23,ESE,119,1.0,0.0,52,0.00,,,0.00,0,WeatherHawk,2013-01-19 02:45:00,
2013-01-18 19:50:00,15.4,0.6,30.23,SE,133,1.0,0.0,51,0.00,,,0.00,0,WeatherHawk,2013-01-19 02:50:00,
2013-01-18 19:55:00,15.8,0.9,30.23,East,91,1.0,0.0,51,0.00,,,0.00,0,WeatherHawk,2013-01-19 02:55:00,
2013-01-18 20:00:00,16.3,1.4,30.23,WNW,286,0.0,0.0,51,0.00,,,0.00,0,WeatherHawk,2013-01-19 03:00:00,
2013-01-18 20:05:00,15.4,0.2,30.23,East,84,1.0,0.0,50,0.00,,,0.00,0,WeatherHawk,2013-01-19 03:05:00,
2013-01-18 20:10:00,15.3,0.4,30.23,East,84,3.0,0.0,51,0.00,,,0.00,0,WeatherHawk,2013-01-19 03:10:00,
2013-01-18 20:15:00,16.2,1.2,30.23,SW,216,1.0,0.0,51,0.00,,,0.00,0,WeatherHawk,2013-01-19 03:15:00,
2013-01-18 20:20:00,16.0,0.7,30.22,WNW,301,2.0,0.0,50,0.00,,,0.00,0,WeatherHawk,2013-01-19 03:20:00,
2013-01-18 20:25:00,15.3,0.4,30.22,NNW,339,3.0,0.0,51,0.00,,,0.00,0,WeatherHawk,2013-01-19 03:25:00,
2013-01-18 20:30:00,14.9,0.1,30.22,WNW,295,1.0,0.0,51,0.00,,,0.00,0,WeatherHawk,2013-01-19 03:30:00,
2013-01-18 20:35:00,14.2,0.2,30.22,WNW,294,1.0,0.0,53,0.00,,,0.00,0,WeatherHawk,2013-01-19 03:35:00,
2013-01-18 20:40:00,15.3,0.4,30.22,SSE,162,3.0,0.0,51,0.00,,,0.00,0,WeatherHawk,2013-01-19 03:40:00,
2013-01-18 20:45:00,14.4,-0.4,30.22,SSW,209,3.0,0.0,51,0.00,,,0.00,0,WeatherHawk,2013-01-19 03:45:00,
2013-01-18 20:50:00,14.0,-0.3,30.22,NE,43,2.0,0.0,52,0.00,,,0.00,0,WeatherHawk,2013-01-19 03:50:00,
2013-01-18 20:55:00,15.1,0.2,30.22,East,84,2.0,0.0,51,0.00,,,0.00,0,WeatherHawk,2013-01-19 03:55:00,
2013-01-18 21:00:00,14.4,0.0,30.22,ENE,65,2.0,0.0,52,0.00,,,0.00,0,WeatherHawk,2013-01-19 04:00:00,
2013-01-18 21:05:00,15.1,0.2,30.22,NNW,340,1.0,0.0,51,0.00,,,0.00,0,WeatherHawk,2013-01-19 04:05:00,
2013-01-18 21:10:00,15.4,0.6,30.22,ENE,73,1.0,0.0,51,0.00,,,0.00,0,WeatherHawk,2013-01-19 04:10:00,
2013-01-18 21:15:00,15.6,1.2,30.22,ESE,123,1.0,0.0,52,0.00,,,0.00,0,WeatherHawk,2013-01-19 04:15:00,
2013-01-18 21:20:00,15.1,0.7,30.22,East,94,2.0,0.0,52,0.00,,,0.00,0,WeatherHawk,2013-01-19 04:20:00,
2013-01-18 21:25:00,14.9,0.5,30.22,East,97,1.0,0.0,52,0.00,,,0.00,0,WeatherHawk,2013-01-19 04:25:00,
2013-01-18 21:30:00,14.4,-0.4,30.22,West,259,2.0,0.0,51,0.00,,,0.00,0,WeatherHawk,2013-01-19 04:30:00,
2013-01-18 21:35:00,13.3,-1.0,30.22,ESE,110,2.0,0.0,52,0.00,,,0.00,0,WeatherHawk,2013-01-19 04:35:00,
2013-01-18 21:40:00,13.1,-0.8,30.22,East,101,2.0,0.0,53,0.00,,,0.00,1,WeatherHawk,2013-01-19 04:40:00,
2013-01-18 21:45:00,13.3,-0.6,30.22,East,93,2.0,0.0,53,0.00,,,0.00,0,WeatherHawk,2013-01-19 04:45:00,
2013-01-18 21:50:00,13.6,-0.7,30.22,East,79,2.0,0.0,52,0.00,,,0.00,0,WeatherHawk,2013-01-19 04:50:00,
2013-01-18 21:55:00,13.8,-0.5,30.22,SE,142,1.0,0.0,52,0.00,,,0.00,1,WeatherHawk,2013-01-19 04:55:00,
2013-01-18 22:01:00,14.2,-0.2,30.22,ENE,76,2.0,0.0,52,0.00,,,0.00,0,WeatherHawk,2013-01-19 05:01:00,
2013-01-18 22:02:00,14.4,0.0,30.22,ENE,67,2.0,0.0,52,0.00,,,0.00,0,WeatherHawk,2013-01-19 05:02:00,
2013-01-18 22:03:00,14.5,0.2,30.22,NE,55,1.0,0.0,52,0.00,,,0.00,0,WeatherHawk,2013-01-19 05:03:00,
2013-01-18 22:07:00,14.7,-0.1,30.22,ENE,78,2.0,0.0,51,0.00,,,0.00,0,WeatherHawk,2013-01-19 05:07:00,
2013-01-18 22:12:00,14.7,-0.1,30.22,NNW,336,1.0,0.0,51,0.00,,,0.00,0,WeatherHawk,2013-01-19 05:12:00,
2013-01-18 22:17:00,14.2,0.2,30.22,NE,40,0.0,0.0,53,0.00,,,0.00,0,WeatherHawk,2013-01-19 05:17:00,
2013-01-18 22:22:00,13.1,-0.8,30.22,South,175,1.0,0.0,53,0.00,,,0.00,0,WeatherHawk,2013-01-19 05:22:00,
2013-01-18 22:27:00,12.2,-0.8,30.22,ESE,121,2.0,0.0,55,0.00,,,0.00,0,WeatherHawk,2013-01-19 05:27:00,
2013-01-18 22:32:00,12.9,-0.2,30.22,ESE,113,1.0,0.0,55,0.00,,,0.00,0,WeatherHawk,2013-01-19 05:32:00,
2013-01-18 22:37:00,13.3,-0.2,30.22,SE,145,2.0,0.0,54,0.00,,,0.00,0,WeatherHawk,2013-01-19 05:37:00,
2013-01-18 22:42:00,13.6,-0.3,30.22,WSW,248,1.0,0.0,53,0.00,,,0.00,0,WeatherHawk,2013-01-19 05:42:00,
2013-01-18 22:47:00,13.5,-0.4,30.22,ENE,63,2.0,0.0,53,0.00,,,0.00,0,WeatherHawk,2013-01-19 05:47:00,
2013-01-18 22:52:00,13.1,-0.4,30.22,ENE,75,2.0,0.0,54,0.00,,,0.00,0,WeatherHawk,2013-01-19 05:52:00,
2013-01-18 22:57:00,13.1,-0.4,30.22,East,92,2.0,0.0,54,0.00,,,0.00,0,WeatherHawk,2013-01-19 05:57:00,
2013-01-18 23:02:00,13.1,-0.4,30.22,NW,316,1.0,0.0,54,0.00,,,0.00,0,WeatherHawk,2013-01-19 06:02:00,
2013-01-18 23:07:00,12.7,-0.3,30.22,ENE,73,2.0,0.0,55,0.00,,,0.00,0,WeatherHawk,2013-01-19 06:07:00,
2013-01-18 23:12:00,13.1,0.0,30.22,East,82,2.0,0.0,55,0.00,,,0.00,0,WeatherHawk,2013-01-19 06:12:00,
2013-01-18 23:17:00,14.2,-0.2,30.22,NW,314,2.0,0.0,52,0.00,,,0.00,0,WeatherHawk,2013-01-19 06:17:00,
2013-01-18 23:22:00,13.3,-0.2,30.22,ENE,73,2.0,0.0,54,0.00,,,0.00,0,WeatherHawk,2013-01-19 06:22:00,
2013-01-18 23:27:00,13.1,0.0,30.22,East,89,1.0,0.0,55,0.00,,,0.00,0,WeatherHawk,2013-01-19 06:27:00,
2013-01-18 23:32:00,11.5,-1.5,30.21,ESE,109,2.0,0.0,55,0.00,,,0.00,0,WeatherHawk,2013-01-19 06:32:00,
2013-01-18 23:37:00,11.5,-1.1,30.21,WNW,287,2.0,0.0,56,0.00,,,0.00,1,WeatherHawk,2013-01-19 06:37:00,
2013-01-18 23:42:00,10.9,-1.3,30.21,SW,215,1.0,0.0,57,0.00,,,0.00,1,WeatherHawk,2013-01-19 06:42:00,
2013-01-18 23:47:00,11.1,-1.1,30.21,East,80,3.0,0.0,57,0.00,,,0.00,0,WeatherHawk,2013-01-19 06:47:00,
2013-01-18 23:52:00,11.5,-0.8,30.21,WSW,240,1.0,0.0,57,0.00,,,0.00,0,WeatherHawk,2013-01-19 06:52:00,
2013-01-18 23:57:00,11.7,-1.0,30.21,SW,229,2.0,0.0,56,0.00,,,0.00,0,WeatherHawk,2013-01-19 06:57:00,